Location: Newark
(43.0400°N, 13.0400°E)
Time: 08:27:44
(UTC+00:00)

N. Korean satellite - Visible Passes

Search period start: 01 October 2020 00:00
Search period end: 11 October 2020 00:00
Orbit: 454 x 503 km, 97.2° (Epoch: 30 September)

Date Brightness Start Highest point End Pass type
(mag) Time Alt. Az. Time Alt. Az. Time Alt. Az.
01 Oct 8.3 04:18:10 10° NNE 04:21:33 38° E 04:24:51 10° SSE visible
02 Oct 9.7 03:52:49 10° NE 03:55:22 18° E 03:57:52 10° SE visible
03 Oct 10.8 17:11:33 10° W 17:12:03 10° W 17:12:33 10° W visible
04 Oct 7.2 04:33:13 10° NNE 04:36:46 61° E 04:40:14 10° S visible
05 Oct 8.9 04:07:32 10° NE 04:10:37 27° E 04:13:39 10° SSE visible
06 Oct 9.9 03:42:33 10° ENE 03:44:23 13° E 03:46:11 10° ESE visible
08 Oct 7.9 04:22:25 10° NNE 04:25:49 43° E 04:29:08 10° S visible
09 Oct 9.5 03:56:55 10° NE 03:59:37 20° E 04:02:15 10° SE visible
